SPSEC EPKK-EPKK

Flight info

Callsign SPSEC
Flight time 0h 19m
Altitude 2000
Route TARFFIC CIRCUITS
Aircraft PA24/L-SBDGRY/S

Departure

Time 2026-05-04 19:13
Airport Kraków John Paul II International Airport (EPKK)

Arrival

Time 2026-05-04 19:33
Airport Kraków John Paul II International Airport (EPKK)
Time Latitude Longitude Altitude Speed Heading
2026-05-04 18:27 50.07688 19.80077 794 ft 0 kts 348°
2026-05-04 19:03 50.07696 19.80074 794 ft 0 kts 347°
2026-05-04 19:06 50.07720 19.80066 794 ft 7 kts 352°
2026-05-04 19:07 50.07750 19.80142 794 ft 11 kts 80°
2026-05-04 19:07 50.07768 19.80278 794 ft 14 kts 78°
2026-05-04 19:07 50.07842 19.80338 795 ft 8 kts 347°
2026-05-04 19:07 50.07844 19.80337 795 ft 0 kts 347°
2026-05-04 19:11 50.07851 19.80334 795 ft 2 kts 347°
2026-05-04 19:11 50.07852 19.80334 795 ft 0 kts 347°
2026-05-04 19:12 50.07874 19.80326 795 ft 7 kts 347°
2026-05-04 19:12 50.08008 19.80164 795 ft 16 kts 259°
2026-05-04 19:12 50.07978 19.79969 795 ft 47 kts 257°
2026-05-04 19:13 50.07866 19.79190 930 ft 82 kts 253°
2026-05-04 19:13 50.07748 19.78322 1237 ft 79 kts 255°
2026-05-04 19:13 50.07449 19.77733 1553 ft 83 kts 168°
2026-05-04 19:13 50.06838 19.78100 1671 ft 96 kts 163°
2026-05-04 19:14 50.06214 19.78373 1681 ft 91 kts 169°
2026-05-04 19:14 50.05734 19.78916 1672 ft 92 kts 118°
2026-05-04 19:14 50.05308 19.79597 1691 ft 90 kts 176°
2026-05-04 19:14 50.04872 19.79018 1669 ft 92 kts 260°
2026-05-04 19:15 50.05155 19.78211 1642 ft 95 kts 342°
2026-05-04 19:15 50.05622 19.78767 1581 ft 102 kts 91°
2026-05-04 19:15 50.05308 19.79713 1597 ft 99 kts 145°
2026-05-04 19:15 50.04679 19.79591 1633 ft 107 kts 237°
2026-05-04 19:16 50.04734 19.78537 1786 ft 96 kts 303°
2026-05-04 19:16 50.05309 19.78064 1797 ft 107 kts
2026-05-04 19:16 50.05675 19.78933 1717 ft 109 kts 105°
2026-05-04 19:16 50.05226 19.79716 1796 ft 95 kts 170°
2026-05-04 19:17 50.04681 19.79356 1852 ft 91 kts 246°
2026-05-04 19:17 50.04807 19.78412 1824 ft 99 kts 316°
2026-05-04 19:17 50.05497 19.78490 1749 ft 112 kts 29°
2026-05-04 19:17 50.05994 19.79412 1699 ft 112 kts 68°
2026-05-04 19:18 50.06239 19.80544 1665 ft 111 kts 72°
2026-05-04 19:18 50.06472 19.81714 1610 ft 114 kts 76°
2026-05-04 19:18 50.06653 19.82891 1627 ft 109 kts 79°
2026-05-04 19:18 50.07151 19.83553 1514 ft 102 kts 356°
2026-05-04 19:19 50.07833 19.83385 1431 ft 95 kts 347°
2026-05-04 19:19 50.08396 19.83009 1382 ft 82 kts 304°
2026-05-04 19:19 50.08310 19.82188 1265 ft 86 kts 252°
2026-05-04 19:19 50.08169 19.81345 1178 ft 75 kts 253°
2026-05-04 19:20 50.08068 19.80578 994 ft 68 kts 255°
2026-05-04 19:20 50.07976 19.79910 847 ft 59 kts 254°
2026-05-04 19:20 50.07891 19.79303 796 ft 55 kts 255°
2026-05-04 19:20 50.07811 19.78718 797 ft 74 kts 256°
2026-05-04 19:21 50.07690 19.77901 1108 ft 72 kts 253°
2026-05-04 19:21 50.07412 19.77353 1404 ft 79 kts 179°
2026-05-04 19:21 50.06789 19.77579 1507 ft 102 kts 166°
2026-05-04 19:21 50.06409 19.78395 1544 ft 115 kts 78°
2026-05-04 19:22 50.06615 19.79650 1654 ft 121 kts 77°
2026-05-04 19:22 50.06823 19.80863 1674 ft 113 kts 77°
2026-05-04 19:22 50.07002 19.82043 1617 ft 113 kts 78°
2026-05-04 19:22 50.07174 19.83226 1596 ft 110 kts 79°
2026-05-04 19:23 50.07326 19.84392 1572 ft 110 kts 81°
2026-05-04 19:23 50.07633 19.85420 1517 ft 108 kts 33°
2026-05-04 19:23 50.08377 19.85365 1371 ft 113 kts 341°
2026-05-04 19:23 50.08709 19.84497 1322 ft 101 kts 253°
2026-05-04 19:24 50.08475 19.83494 1193 ft 94 kts 252°
2026-05-04 19:24 50.08337 19.82541 1111 ft 89 kts 256°
2026-05-04 19:24 50.08210 19.81612 1042 ft 84 kts 257°
2026-05-04 19:24 50.08102 19.80814 893 ft 69 kts 255°
2026-05-04 19:25 50.07999 19.80102 820 ft 65 kts 257°
2026-05-04 19:25 50.07910 19.79455 799 ft 58 kts 256°
2026-05-04 19:25 50.07810 19.78746 819 ft 89 kts 256°
2026-05-04 19:25 50.07674 19.77762 1048 ft 93 kts 255°
2026-05-04 19:26 50.07528 19.76792 1416 ft 88 kts 257°
2026-05-04 19:26 50.07445 19.75838 1761 ft 89 kts 246°
2026-05-04 19:26 50.06914 19.75600 2036 ft 100 kts 162°
2026-05-04 19:26 50.06190 19.76001 2148 ft 122 kts 166°
2026-05-04 19:27 50.05529 19.76734 2021 ft 126 kts 118°
2026-05-04 19:27 50.05647 19.78105 1848 ft 131 kts 74°
2026-05-04 19:27 50.05908 19.79390 1851 ft 120 kts 74°
2026-05-04 19:27 50.06148 19.80593 1870 ft 114 kts 76°
2026-05-04 19:28 50.06411 19.81755 1779 ft 116 kts 54°
2026-05-04 19:28 50.07153 19.81978 1595 ft 115 kts 336°
2026-05-04 19:28 50.07832 19.81520 1260 ft 99 kts 336°
2026-05-04 19:28 50.08131 19.81121 1156 ft 81 kts 277°
2026-05-04 19:29 50.08030 19.80288 904 ft 73 kts 255°
2026-05-04 19:29 50.07923 19.79547 801 ft 69 kts 256°
2026-05-04 19:29 50.07835 19.78917 797 ft 70 kts 257°
2026-05-04 19:29 50.07674 19.77740 1125 ft 88 kts 256°
2026-05-04 19:30 50.07584 19.77104 1393 ft 88 kts 254°
2026-05-04 19:30 50.07352 19.76315 1811 ft 81 kts 197°
2026-05-04 19:30 50.06654 19.76460 1840 ft 119 kts 165°
2026-05-04 19:30 50.05878 19.77085 1925 ft 133 kts 124°
2026-05-04 19:31 50.06054 19.78565 1877 ft 144 kts 67°
2026-05-04 19:31 50.06449 19.79866 1933 ft 128 kts 65°
2026-05-04 19:31 50.06765 19.81143 1849 ft 127 kts 74°
2026-05-04 19:31 50.06996 19.82397 1577 ft 113 kts 73°
2026-05-04 19:32 50.07553 19.83012 1419 ft 109 kts 359°
2026-05-04 19:32 50.08256 19.82673 1306 ft 96 kts 302°
2026-05-04 19:32 50.08220 19.81666 1116 ft 92 kts 259°
2026-05-04 19:32 50.08091 19.80714 969 ft 88 kts 257°
2026-05-04 19:33 50.07963 19.79835 817 ft 75 kts 256°
2026-05-04 19:33 50.07874 19.79213 795 ft 35 kts 258°
2026-05-04 19:33 50.07861 19.79116 795 ft 27 kts 260°
2026-05-04 19:33 50.07764 19.78435 873 ft 82 kts 253°
2026-05-04 19:34 50.07645 19.77574 1204 ft 76 kts 258°
2026-05-04 19:34 50.07530 19.76740 1562 ft 78 kts 255°
2026-05-04 19:34 50.07125 19.76457 1714 ft 93 kts 162°
2026-05-04 19:34 50.06465 19.76824 1803 ft 109 kts 161°
2026-05-04 19:35 50.05874 19.77527 1814 ft 111 kts 111°
2026-05-04 19:35 50.05957 19.78725 1761 ft 113 kts 77°
2026-05-04 19:35 50.06187 19.79896 1734 ft 113 kts 76°
2026-05-04 19:35 50.06419 19.81071 1692 ft 114 kts 76°
2026-05-04 19:36 50.06863 19.81978 1536 ft 119 kts
2026-05-04 19:36 50.07699 19.81720 1261 ft 116 kts 343°
2026-05-04 19:36 50.08131 19.81036 1143 ft 102 kts 259°
2026-05-04 19:36 50.07935 19.79686 989 ft 139 kts 258°
2026-05-04 19:37 50.07727 19.78165 1062 ft 143 kts 258°
2026-05-04 19:37 50.07563 19.77063 1651 ft 87 kts 243°
2026-05-04 19:37 50.07019 19.76706 1555 ft 110 kts 163°
2026-05-04 19:37 50.06220 19.77064 1574 ft 124 kts 166°
2026-05-04 19:38 50.05549 19.77658 1713 ft 108 kts 112°
2026-05-04 19:38 50.05642 19.78844 1637 ft 114 kts 77°
2026-05-04 19:38 50.05493 19.79933 1577 ft 121 kts 158°
2026-05-04 19:38 50.04801 19.79647 1772 ft 109 kts 245°
2026-05-04 19:39 50.04754 19.78502 1738 ft 109 kts 289°
2026-05-04 19:39 50.05399 19.77964 1626 ft 114 kts 356°
2026-05-04 19:39 50.05918 19.78675 1592 ft 110 kts 85°
2026-05-04 19:39 50.05855 19.79773 1663 ft 100 kts 122°
2026-05-04 19:40 50.05286 19.80275 1632 ft 99 kts 190°
2026-05-04 19:40 50.04656 19.79913 1631 ft 97 kts 207°
2026-05-04 19:40 50.04456 19.79036 1576 ft 100 kts 289°
2026-05-04 19:40 50.04853 19.78180 1561 ft 101 kts 332°
2026-05-04 19:41 50.05511 19.78361 1520 ft 104 kts 44°
2026-05-04 19:41 50.05602 19.79402 1493 ft 102 kts 119°
2026-05-04 19:41 50.05011 19.79646 1485 ft 98 kts 220°
2026-05-04 19:41 50.04835 19.78666 1503 ft 94 kts 282°
2026-05-04 19:42 50.05362 19.78261 1400 ft 105 kts 22°
2026-05-04 19:42 50.05803 19.79165 1403 ft 101 kts 73°
2026-05-04 19:42 50.05554 19.80016 1474 ft 92 kts 164°
2026-05-04 19:42 50.04980 19.80180 1559 ft 81 kts 181°
2026-05-04 19:43 50.04496 19.79733 1554 ft 88 kts 246°
2026-05-04 19:43 50.04601 19.78790 1529 ft 91 kts 300°
2026-05-04 19:43 50.05133 19.78274 1490 ft 97 kts 354°
2026-05-04 19:43 50.05639 19.78779 1453 ft 100 kts 75°
2026-05-04 19:44 50.05390 19.79625 1463 ft 95 kts 170°
2026-05-04 19:44 50.04845 19.79163 1534 ft 86 kts 236°
2026-05-04 19:44 50.04859 19.78268 1508 ft 90 kts 308°
2026-05-04 19:44 50.05467 19.77971 1467 ft 98 kts 352°
2026-05-04 19:45 50.06105 19.78285 1453 ft 101 kts 46°
2026-05-04 19:45 50.06368 19.79276 1464 ft 100 kts 81°
2026-05-04 19:45 50.06216 19.80291 1494 ft 97 kts 127°
2026-05-04 19:45 50.05681 19.80839 1534 ft 91 kts 173°
2026-05-04 19:46 50.05108 19.80627 1589 ft 85 kts 220°
2026-05-04 19:46 50.04889 19.79804 1599 ft 87 kts 272°
2026-05-04 19:46 50.05226 19.78994 1568 ft 96 kts 323°
2026-05-04 19:46 50.05867 19.78851 1570 ft 96 kts 20°
2026-05-04 19:47 50.06320 19.79589 1552 ft 101 kts 73°
2026-05-04 19:47 50.06368 19.80651 1572 ft 97 kts 120°
2026-05-04 19:47 50.05815 19.80829 1596 ft 90 kts 228°
2026-05-04 19:47 50.05944 19.80036 1608 ft 92 kts 333°
2026-05-04 19:48 50.06589 19.80211 1482 ft 106 kts 43°
2026-05-04 19:48 50.06910 19.81230 1412 ft 109 kts 78°
2026-05-04 19:48 50.07050 19.82360 1318 ft 98 kts 81°
2026-05-04 19:48 50.07458 19.82975 1195 ft 84 kts
2026-05-04 19:49 50.08038 19.82840 1066 ft 85 kts 347°
2026-05-04 19:49 50.08398 19.82291 1045 ft 79 kts 261°
2026-05-04 19:49 50.08188 19.81431 949 ft 86 kts 258°
2026-05-04 19:49 50.08061 19.80528 862 ft 84 kts 257°
2026-05-04 19:50 50.07943 19.79680 803 ft 75 kts 258°
2026-05-04 19:50 50.07846 19.78985 796 ft 56 kts 255°
2026-05-04 19:50 50.07731 19.78228 930 ft 78 kts 253°
2026-05-04 19:50 50.07612 19.77417 1249 ft 79 kts 256°
2026-05-04 19:51 50.07494 19.76561 1620 ft 81 kts 262°
2026-05-04 19:51 50.07767 19.75781 1863 ft 98 kts 327°
2026-05-04 19:51 50.08541 19.75540 1966 ft 122 kts 349°
2026-05-04 19:51 50.09384 19.75530 2054 ft 122 kts 24°
2026-05-04 19:52 50.09742 19.76727 1845 ft 122 kts 78°
2026-05-04 19:52 50.09906 19.77908 1794 ft 103 kts 79°
2026-05-04 19:52 50.10051 19.78946 1704 ft 97 kts 80°
2026-05-04 19:52 50.10185 19.80012 1651 ft 102 kts 82°
2026-05-04 19:53 50.10203 19.81067 1565 ft 95 kts 115°
2026-05-04 19:53 50.09633 19.81553 1448 ft 95 kts 167°
2026-05-04 19:53 50.09052 19.81754 1326 ft 82 kts 171°
2026-05-04 19:53 50.08479 19.81864 1243 ft 82 kts 191°
2026-05-04 19:54 50.08151 19.81181 1061 ft 82 kts 256°
2026-05-04 19:54 50.08036 19.80337 899 ft 75 kts 257°
2026-05-04 19:54 50.07927 19.79562 802 ft 67 kts 258°
2026-05-04 19:54 50.07831 19.78925 797 ft 74 kts 256°
2026-05-04 19:55 50.07714 19.78048 1032 ft 83 kts 255°
2026-05-04 19:55 50.07594 19.77201 1373 ft 78 kts 254°
2026-05-04 19:55 50.07494 19.76365 1685 ft 80 kts 276°
2026-05-04 19:55 50.07911 19.75756 1846 ft 93 kts 341°
2026-05-04 19:56 50.08616 19.75644 1941 ft 112 kts 350°
2026-05-04 19:56 50.09345 19.76119 1999 ft 127 kts 54°
2026-05-04 19:56 50.09529 19.77490 1982 ft 129 kts 82°
2026-05-04 19:56 50.09725 19.78757 1915 ft 110 kts 81°
2026-05-04 19:57 50.09867 19.79868 1750 ft 100 kts 84°
2026-05-04 19:57 50.09965 19.80902 1583 ft 97 kts 86°
2026-05-04 19:57 50.09762 19.81884 1491 ft 102 kts 135°
2026-05-04 19:57 50.09121 19.82369 1376 ft 103 kts 168°
2026-05-04 19:58 50.08432 19.82469 1341 ft 99 kts 204°
2026-05-04 19:58 50.08185 19.81482 1132 ft 118 kts 258°
2026-05-04 19:58 50.08011 19.80215 838 ft 109 kts 258°
2026-05-04 19:58 50.07859 19.79072 853 ft 112 kts 257°
2026-05-04 19:59 50.07997 19.78169 1459 ft 92 kts 326°
2026-05-04 19:59 50.08707 19.77954 1502 ft 111 kts
2026-05-04 19:59 50.09092 19.78951 1452 ft 118 kts 82°
2026-05-04 19:59 50.09191 19.80191 1424 ft 109 kts 86°
2026-05-04 20:00 50.09220 19.81277 1317 ft 93 kts 100°
2026-05-04 20:00 50.08765 19.81862 1157 ft 92 kts 172°
2026-05-04 20:00 50.08216 19.82110 1152 ft 78 kts 126°
2026-05-04 20:00 50.08485 19.82382 1129 ft 88 kts 286°
2026-05-04 20:01 50.08196 19.81641 1038 ft 84 kts 261°
2026-05-04 20:01 50.08091 19.80725 923 ft 88 kts 257°
2026-05-04 20:01 50.07963 19.79835 806 ft 78 kts 257°
2026-05-04 20:01 50.07875 19.79207 795 ft 35 kts 257°
2026-05-04 20:02 50.07795 19.79071 795 ft 16 kts 167°
2026-05-04 20:02 50.07716 19.79099 794 ft 8 kts 167°
2026-05-04 20:02 50.07610 19.79170 794 ft 16 kts 106°
2026-05-04 20:02 50.07656 19.79474 794 ft 29 kts 76°
2026-05-04 20:03 50.07695 19.79754 794 ft 22 kts 78°
2026-05-04 20:03 50.07682 19.79886 794 ft 15 kts 188°
2026-05-04 20:03 50.07609 19.79972 794 ft 17 kts 77°
2026-05-04 20:03 50.07656 19.80088 794 ft 11 kts 347°
2026-05-04 20:04 50.07680 19.80081 794 ft 0 kts 348°